Weather Roundup
Issued by NWS Chicago, IL

Home | Current Version | Previous Version | Graphics & Text | Print | Product List | Glossary On
Versions: 1 2 3 4 5 6 7 8 9 10 11 12 13 14 15 16 17 18 19 20 21 22 23 24 25 26 27 28 29 30 31 32 33 34 35 36 37 38 39 40 41 42 43 44 45 46 47 48 49 50
000
NZUS59 KLOT 120503
HRRLOT

CHICAGO AREA WEATHER ROUNDUP
NATIONAL WEATHER SERVICE CHICAGO/ROMEOVILLE IL
1100 PM CST THU FEB 11 2016

NOTE: "FAIR" INDICATES FEW OR NO CLOUDS BELOW 12,000 FEET WITH NO
SIGNIFICANT WEATHER AND/OR OBSTRUCTIONS TO VISIBILITY.

* THESE STATIONS ARE NOT UNDER NWS QUALITY CONTROL. THEY ALSO MAY NOT
  REPORT WEATHER SUCH AS PRECIPITATION OR FOG.

ILZ005-006-012>014-019>023-120600-
NORTHEAST ILLINOIS

CITY           SKY/WX    TMP DP  RH WIND       PRES   REMARKS
OHARE          CLOUDY    18   7  62 W5        30.25F WCI  11
MIDWAY         CLOUDY    19   4  51 SW3       30.26F
AURORA         CLEAR     19  10  68 SW3       30.26F
LANSING*       PTCLDY    13   7  76 S5        30.27S WCI   5
WAUKEGAN       CLOUDY    16   6  65 SW3       30.23F
DUPAGE AIRPORT MOCLDY    12   5  73 S3        30.24F
WHEELING       CLOUDY    18   5  57 W3        30.26F
$$

WIZ051-052-058>065-066-070>072-120600-
SOUTHEAST WISCONSIN

CITY           SKY/WX    TMP DP  RH WIND       PRES   REMARKS
MILWAUKEE      CLOUDY    16   1  51 W7        30.22F WCI   6
KENOSHA*       CLOUDY    17   6  62 W7        30.23F WCI   8
RACINE*        CLOUDY    17   4  56 W8        30.24F WCI   7
BURLINGTON     CLOUDY    15   6  66 W5        30.22F WCI   8
$$

INZ001>003-010>013-019-020-120600-
NORTHWEST INDIANA

CITY           SKY/WX    TMP DP  RH WIND       PRES   REMARKS
GARY*          CLOUDY    17   7  63 CALM      30.27F
MICHIGAN CITY* NOT AVBL
RENSSELAER*    NOT AVBL
VALPARAISO     CLOUDY    10   6  84 CALM      30.26F
$$

LMZ740>746-120600-
SOUTHERN LAKE MICHIGAN

STATION/POSITION TIME  SKY/WX   TEMP WIND        PRES    VSBY
                                AIR  DIR/SP/G
                 (UTC)          (F)  (DEG/KT/KT) (MB)    (MI)
HARRISON CRIB    0400            21  250/ 11/ 13   N/A
BURNHAM HARBOR   0500            20  210/  2/  7   N/A
CALUMET HARBOR   0400            18  240/  3/  5 1024.4F
BURNS HARBOR     0400            18  210/  6/  8 1025.7S
MICHIGAN CITY    0400            17  170/ 10/ 11   N/A
$$

ABBREVIATIONS USED IN REMARKS
   TC - TEMPERATURE IN CELSIUS
  WCI - WIND CHILL INDEX
   HX - HEAT INDEX
  VSB - VISIBILITY
$$



USA.gov is the U.S. government's official web portal to all federal, state and local government web resources and services.